Home   Weather   Charleroi   Past weeks

Flag for Belgium Past Weather in Charleroi, Belgium — Yesterday and Last 2 Weeks

Now
70 °F

Passing clouds.


Feels Like: 70 °F
Forecast: 48 / 66 °F
Wind: 13 mph from Southwest

Location: Charleroi / Gosselies

Current Time: Sep 25, 2016 at 2:19:26 PM

Latest Report: Sep 25, 2016 at 1:50 PM


Visibility: N/A

Pressure: 30.04 "Hg

Humidity: 53%

Dew Point: 52 °F

Location of CharleroiLocation

Past Weather in Charleroi — Graph

°F

Charleroi Temperature Yesterday

Maximum temperature yesterday: 73 °F (at 2:20 PM)
Minimum temperature yesterday: 52 °F (at 7:50 AM)
Average temperature yesterday: 62 °F

High & Low Weather Summary for the Past Weeks

 TemperatureHumidityPressure
High88 °F (Sep 13, 2:20 PM)94% (Sep 11, 11:20 AM)30.30 "Hg (Sep 11, 11:20 AM)
Low52 °F (Sep 20, 2:50 AM)33% (Sep 13, 3:50 PM)29.80 "Hg (Sep 15, 4:50 AM)
Average65 °F70%30.05 "Hg
* Reported Sep 10 12:20 PM — Sep 25 12:50 PM, Charleroi, Weather by CustomWeather, © 2016

Note: Actual official high and low records may vary slightly from our data, if they occured in-between our weather recording intervals... More about our weather records

Advertising

Charleroi Weather History for the Previous 24 Hours

Scroll right to see more
 ConditionsComfort  
Time TempWeatherWind HumidityBarometerVisibility
12:50 PM
Sun, Sep 25
70 °FPassing clouds.13 mph53%30.01 "HgN/A
12:20 PM70 °FPassing clouds.14 mph53%30.01 "HgN/A
11:50 AM68 °FPassing clouds.12 mph56%30.01 "HgN/A
11:20 AM68 °FPassing clouds.12 mph56%30.01 "HgN/A
10:50 AM66 °FPassing clouds.14 mph60%30.01 "HgN/A
10:20 AM64 °FPassing clouds.14 mph64%30.01 "HgN/A
9:50 AM63 °FPassing clouds.13 mph68%30.01 "HgN/A
9:20 AM61 °FPassing clouds.10 mph72%30.01 "HgN/A
8:50 AM59 °FPassing clouds.8 mph72%30.01 "HgN/A
8:20 AM57 °FPassing clouds.8 mph77%30.01 "HgN/A
7:50 AM55 °FSunny.7 mph82%30.01 "Hg10 mi
7:20 AM55 °FPassing clouds.7 mph82%30.01 "HgN/A
6:50 AM55 °FPassing clouds.7 mph82%30.01 "HgN/A
6:20 AM55 °FClear.8 mph82%30.01 "Hg10 mi
5:50 AM55 °FClear.8 mph82%30.01 "Hg10 mi
5:20 AM57 °FClear.8 mph77%30.04 "Hg10 mi
4:50 AM59 °FClear.7 mph72%30.04 "Hg10 mi
4:20 AM59 °FClear.8 mph72%30.04 "Hg10 mi
3:50 AM59 °FClear.7 mph72%30.04 "Hg10 mi
3:20 AM59 °FClear.7 mph72%30.04 "Hg10 mi
2:50 AM59 °FClear.7 mph68%30.07 "Hg10 mi
2:20 AM57 °FClear.7 mph72%30.07 "Hg10 mi
1:50 AM57 °FPassing clouds.7 mph72%30.07 "HgN/A
1:20 AM59 °FPassing clouds.6 mph63%30.07 "HgN/A
12:50 AM57 °FPassing clouds.5 mph67%30.07 "HgN/A
12:20 AM57 °FClear.2 mph67%30.07 "Hg10 mi
11:50 PM
Sat, Sep 24
59 °FClear.6 mph63%30.07 "Hg10 mi
11:20 PM61 °FClear.7 mph59%30.09 "Hg10 mi
10:50 PM61 °FClear.8 mph55%30.09 "Hg10 mi
10:20 PM61 °FClear.7 mph59%30.09 "Hg10 mi
9:50 PM63 °FPassing clouds.5 mph52%30.09 "HgN/A
9:20 PM63 °FClear.3 mph56%30.09 "Hg10 mi
8:50 PM63 °FClear.6 mph52%30.09 "Hg10 mi
8:20 PM64 °FClear.5 mph52%30.12 "Hg10 mi
7:50 PM64 °FPassing clouds.3 mph52%30.12 "HgN/A
7:20 PM68 °FPassing clouds.6 mph43%30.12 "HgN/A
6:50 PM70 °FSunny.9 mph40%30.12 "Hg10 mi
6:20 PM72 °FPassing clouds.12 mph38%30.12 "HgN/A
5:50 PM72 °FPassing clouds.9 mph38%30.12 "HgN/A
5:20 PM73 °FPassing clouds.13 mph38%30.15 "HgN/A
4:50 PM73 °FPassing clouds.12 mph38%30.15 "HgN/A
4:20 PM72 °FPassing clouds.13 mph38%30.15 "HgN/A
3:50 PM73 °FPassing clouds.13 mph38%30.18 "HgN/A
3:20 PM73 °FPassing clouds.13 mph36%30.18 "HgN/A
2:50 PM73 °FPassing clouds.13 mph36%30.18 "HgN/A
2:20 PM73 °FPassing clouds.13 mph38%30.21 "HgN/A
Weather by CustomWeather, © 2016

See weather overviewHow to use our weather pages